Other Public Products
Issued by NWS Grand Forks, ND

Home | Current Version | Previous Version | Text Only | Print | Product List | Glossary On
Versions: 1 2 3 4 5 6 7 8 9 10 11 12 13 14 15 16 17 18 19 20 21 22 23 24 25 26 27 28 29 30 31 32 33 34 35 36 37 38 39 40 41 42 43 44 45 46 47 48 49 50
000
FPUS83 KFGF 022010
OPUFGF
PRAIRIE TO PINES WEATHER ROUNDUP
NATIONAL WEATHER SERVICE EASTERN NORTH DAKOTA/GRAND FORKS ND
300 PM CDT WED SEP 02 2015

 **SATELLITE DATA USED TO AUGMENT SKY COVER AT AUTOMATED STATIONS**
 *****  WEATHER ACROSS EASTERN NORTH DAKOTA  *****

CITY           SKY/WX    TMP DP  RH WIND       PRES   REMARKS
GRAND FORKS    SUNNY     88  66  48 S14G22    29.79F HX  90
GRAND FORKS AF SUNNY     87  67  51 S15       29.80F HX  90
GRAND CITY NWS   N/A     88 N/A N/A SE16        N/A
BUXTON         NOT AVBL
DEVILS LAKE    SUNNY     88  66  48 SE13      29.77S HX  90
FARGO          SUNNY     90  65  43 SE14G24   29.80F HX  92
WAHPETON ARPT  CLEAR     88  63  42 SE16      29.82F
$$

 *****  WEATHER ACROSS CENTRAL AND WESTERN NORTH DAKOTA  *****

CITY           SKY/WX    TMP DP  RH WIND       PRES   REMARKS
JAMESTOWN      SUNNY     88  68  51 SE15G29   29.77F HX  91
BISMARCK       SUNNY     88  68  51 SE8       29.75F HX  91
MINOT          SUNNY     92  60  34 SE13      29.71F HX  91
MINOT AFB      SUNNY     93  63  36 SE17      29.70F HX  94
GARRISON         N/A     93  63  36 SE10      29.73F HX  94
WILLISTON      SUNNY     97  52  21 SE18G24   29.68F HX  94
DICKINSON      MOSUNNY   93  45  19 S17G23    29.74F
HETTINGER      SUNNY     92  48  22 S10G22    29.79S
$$

 *****  OTHER OBSERVATIONS NORTHEAST NORTH DAKOTA  *****

CITY           SKY/WX    TMP DP  RH WIND       PRES   REMARKS
WALHALLA       FAIR      86  72  62 MISG      29.77F HX  92
LANGDON        FAIR      91  64  40 S15G22    29.80S HX  93
CAVALIER       FAIR      86  68  54 S17G23    29.78F
GRAFTON        FAIR      88  68  51 SE17G23   29.80F HX  91
CANDO          NOT AVBL
FORT TOTTEN      N/A     88  67  49 S9        29.95S HX  91
ROLLA            N/A     90  66  45 S10G17    29.79S HX  92
RUGBY          FAIR      90  66  45 S14       29.74F HX  92
 ***** THE ABOVE OBSERVATIONS ARE NON NWS ARE NOT QUALITY
        CONTROLLED AND MAY MIS-REPORT RAIN FOR SNOW...
$$

 *****  OTHER OBSERVATIONS SOUTHEAST NORTH DAKOTA *****

CITY           SKY/WX    TMP DP  RH WIND       PRES   REMARKS
COOPERSTOWN    NOT AVBL
VALLEY CITY    FAIR      84  72  65 SE17G23   29.80F
OAKES            N/A     90  82  79 E16       29.78F HX 111
GWINNER        FAIR      88  72  58 E16       29.80F HX  94
SHEYENNE NWR     N/A     87  71  57 SE14      29.95S HX  92
BUFFALO        NOT AVBL
WYNDMERE         N/A     88  70  55 SE13        N/A  HX  92
 ***** THE ABOVE OBSERVATIONS ARE NON NWS ARE NOT QUALITY
       CONTROLLED AND MAY MIS-REPORT RAIN FOR SNOW...
$$

  *****  WEATHER ACROSS NORTHERN MINNESOTA  *****

CITY           SKY/WX    TMP DP  RH WIND       PRES   REMARKS
FLAG ISLAND    SUNNY     77  70  78 S9        29.85F
WARROAD        SUNNY     86  72  62 S13       29.86S HX  92
ROSEAU         SUNNY     88  70  55 SE10G17   29.85S HX  92
HALLOCK        SUNNY     90  63  40 S16G29    29.79F HX  90
THF RVR FALLS  SUNNY     88  63  42 S12G21    29.84S
HALSTAD        NOT AVBL
FOSSTON        SUNNY     88  61  40 SE10G17   29.86F
BAUDETTE       MOSUNNY   86  70  58 S9        29.88S HX  90
WASKISH        SUNNY     82  64  54 SE9G16    29.89S
CROOKSTON      SUNNY     88  63  42 SE15      29.81F
$$
  *****  WEATHER ACROSS CENTRAL AND WEST MINNESOTA  *****

CITY           SKY/WX    TMP DP  RH WIND       PRES   REMARKS
BEMIDJI        SUNNY     83  64  53 SE13G20   29.90S
PARK RAPIDS    SUNNY     84  62  47 SE15      29.90S
WADENA         SUNNY     82  66  57 SE15G21   29.89S
DETROIT LAKES  SUNNY     86  63  45 SE15G21   29.88S
MOORHEAD       SUNNY     90  64  43 SE10G21   29.82S HX  91
FERGUS FALLS   SUNNY     84  66  54 SE16      29.83S
ELBOW LAKE     FAIR      82  70  66 SE14G23   29.86S
MORRIS MN      SUNNY     84  72  65 E14       29.84S
STAPLES        MOSUNNY   81  64  57 SE9       29.90S
WHEATON        SUNNY     84  70  61 SE15      29.83F
$$
  *****  WEATHER ELSEWHERE ACROSS MINNESOTA  *****

CITY           SKY/WX    TMP DP  RH WIND       PRES   REMARKS
DULUTH         MOSUNNY   75  66  73 SE9       29.97S
INTRNTL FALLS  SUNNY     82  66  58 SE7       29.91F
ELY            CLOUDY    73  63  68 SE6       29.98S
CLOQUET        PTSUNNY   77  63  61 SE7       29.96R
BRAINERD       MOSUNNY   77  66  68 E8G18     29.92R
HIBBING        SUNNY     79  66  64 E14       29.95R
ALEXANDRIA     MOSUNNY   80  68  66 E15       29.91R
SAINT CLOUD    PTSUNNY   77  69  76 E9        29.91S
MINNEAPOLIS    CLOUDY    73  66  78 E10       29.91S
$$

  *****  WEATHER ACROSS SOUTH DAKOTA  *****

CITY           SKY/WX    TMP DP  RH WIND       PRES   REMARKS
SIOUX FALLS    PTSUNNY   85  73  67 SE15G22   29.82F HX  91
BROOKINGS      MOSUNNY   84  70  61 SE14G22   29.84F
WATERTOWN      MOSUNNY   88  71  57 SE12G17   29.82F HX  94
HURON          PTSUNNY   88  71  57 S8        29.76F HX  94
SISSETON         N/A     87  70  56 SE16G22   29.80F HX  92
ABERDEEN       PTSUNNY   88  71  57 SE10      29.77F HX  94
MITCHELL       MOSUNNY   89  72  56 S16       29.78S HX  96
PIERRE         MOSUNNY   93  61  34 S5        29.74F HX  93
MOBRIDGE       SUNNY     89  70  53 SE10      29.74F HX  94
RAPID CITY     SUNNY     94  52  24 VRB3      29.80F HX  91
$$

  *****  SOME WEATHER IN NEARBY STATES *****

CITY           SKY/WX    TMP DP  RH WIND       PRES   REMARKS
GLASGOW MT     MOSUNNY   91  38  15 VRB6      29.64F
GREAT FALLS MT CLOUDY    85  33  15 W25G33    29.71F
CHEYENNE WY    MOSUNNY   85  36  17 NE5       30.10F
SCOTTSBLUFF NE SUNNY     92  45  19 VRB3      29.94F
OMAHA NE       MOSUNNY   88  69  53 S20       29.87F HX  92
DES MOINES IA  MOSUNNY   88  67  49 SW14G23   29.90F HX  91
DAVENPORT IA   CLOUDY    83  69  62 S8        29.99F
CHICAGO IL     PTSUNNY   88  67  49 SW13G21   29.99F HX  91
EAU CLAIRE WI  CLOUDY    67  65  93 NE12      29.93F
LA CROSSE WI   MOSUNNY   87  68  52 S13       29.91F HX  90
$$

  *****  SOME NATIONAL WEATHER *****

CITY           SKY/WX    TMP DP  RH WIND       PRES   REMARKS
LA GUARDIA NY  PTSUNNY   86  64  47 S15       29.91F
RALEIGH NC     PTSUNNY   90  68  48 SW9       29.99F HX  94
ATLANTA GA     PTSUNNY   88  67  49 N5        30.05F HX  91
NEW ORLEANS LA LGT RAIN  79  72  79 S7        30.05F
OKLAHOMA CITY  MOSUNNY   92  64  39 SW13G24   29.99F HX  93
ALBUQUERQUE NM MOSUNNY   86  45  23 CALM      30.17F
SALT LAKE CITY MOSUNNY   89  40  17 S21G32    29.95F
LOS ANGELES CA PTSUNNY   73  60  63 W14       29.97S
BOISE ID       CLOUDY    82  36  19 CALM      29.84F
SEATTLE WA     PTSUNNY   66  47  50 SW15      29.91S
$$

*** WEATHER ACROSS MANITOBA...SASKATCHEWAN AND ONTARIO ***
                ***ONTARIO***

CITY           SKY/WX    TMP DP  RH WIND       PRES   REMARKS
GERALDTON      PTSUNNY   79  54  41 W7        29.98F
THUNDER BAY    PTSUNNY   73  57  56 NE7       29.98F
SIOUX LOOKOUT  MOSUNNY   82  55  39 S9G17     29.93F
TORONTO        PTSUNNY   90  66  45 W7G17     29.94F HX  92
BIG TROUT LK   MOSUNNY   72  57  60 SE6       29.89F
PICKLE LAKE    MOSUNNY   84  55  37 SW8       29.93F
DRYDEN         SUNNY     84  59  42 SE17      29.92S
KENORA         PTSUNNY   82  70  65 SW13G20   29.88F
$$
                *** MANITOBA***

CITY           SKY/WX    TMP DP  RH WIND       PRES   REMARKS
BRANDON        MOSUNNY   86  68  54 E12       29.76S
DAUPHIN        SUNNY     84  50  30 E8        29.76F
ISLAND LAKE    PTSUNNY   72  63  73 SE10      29.78S
PILOT MOUND      N/A     91  59  33 S14G21      N/A  HX  90
THE PAS        CLOUDY    72  57  60 NE5       29.75F
THOMPSON       PTSUNNY   66  57  72 NW5       29.80S
WINNIPEG       MOSUNNY   88  70  55 S16G24    29.78F HX  92
LYNN LAKE      PTSUNNY   64  45  48 N3        29.80F
CHURCHILL      CLOUDY    57  50  77 S6        29.83F
GILLAM         PTSUNNY   70  57  64 S8        29.81F
$$
                ***SASKATCHEWAN***

CITY           SKY/WX    TMP DP  RH WIND       PRES   REMARKS
ESTEVAN        MOSUNNY   95  55  26 S22       29.69F HX  93
KINDERSLEY     PTSUNNY   77  36  22 S7        29.60F
LLOYDMINSTER   PTSUNNY   72  45  37 S10       29.56S
PRINCE ALBERT  CLOUDY    73  54  49 SE13      29.62F
REGINA         PTSUNNY   90  57  33 SE26G33   29.60F


USA.gov is the U.S. government's official web portal to all federal, state and local government web resources and services.